Location: Chavannes
(47.1090°N, 0.2226°W)
Time: 15:02:13
(UTC+00:00)

Cosmos 1908 - Pass Details

Date: 16 October 2021
Orbit: 509 x 528 km, 82.5° (Epoch: 05 December)

Event Time Altitude Azimuth Distance (km) Brightness Sun altitude
Rises 17:40:17 0° 157° (SSE) 2,655 6.6 -5.7°
Reaches altitude 10° 17:42:42 10° 143° (SE) 1,770 5.6 -6.1°
Maximum altitude 17:45:50 24° 89° (E) 1,135 4.3 -6.6°
Drops below altitude 10° 17:48:58 10° 35° (NE) 1,776 5.5 -7.1°
Sets 17:51:24 0° 22° (NNE) 2,667 6.5 -7.6°
